Stündliche Wetter Celarevo

Heute, 25 Januar, Montag

Zeit Temperatur Niederschläge Wind Luftdruck Luftfeuchtigkeit
00:00 +1°C° 0.7 mm 9 m/S 737 mmHg 86%
01:00 -1°C° 0 mm 9 m/S 738 mmHg 93%
02:00 -1°C° 0.9 mm 8 m/S 739 mmHg 94%
03:00 -2°C° 0.9 mm 8 m/S 741 mmHg 94%
04:00 -2°C° 0.9 mm 8 m/S 742 mmHg 94%
05:00 -2°C° 0.1 mm 7 m/S 743 mmHg 93%
06:00 -2°C° 0.1 mm 7 m/S 744 mmHg 91%
07:00 -2°C° 0.1 mm 7 m/S 745 mmHg 89%
08:00 -1°C° 0 mm 6 m/S 745 mmHg 84%
09:00 0°C° 0 mm 5 m/S 745 mmHg 79%
10:00 +1°C° 0 mm 4 m/S 745 mmHg 74%
11:00 +3°C° 0 mm 4 m/S 745 mmHg 69%
12:00 +4°C° 0 mm 3 m/S 745 mmHg 64%
13:00 +5°C° 0 mm 3 m/S 744 mmHg 58%
14:00 +5°C° 0 mm 2 m/S 745 mmHg 60%
15:00 +5°C° 0 mm 2 m/S 745 mmHg 62%
16:00 +5°C° 0 mm 2 m/S 745 mmHg 64%
17:00 +4°C° 0 mm 2 m/S 745 mmHg 65%
18:00 +4°C° 0 mm 2 m/S 744 mmHg 67%
19:00 +2°C° 0 mm 3 m/S 744 mmHg 68%
20:00 +3°C° 0.1 mm 2 m/S 744 mmHg 72%
21:00 +3°C° 0.1 mm 2 m/S 745 mmHg 76%
22:00 +3°C° 0.1 mm 1 m/S 745 mmHg 80%
23:00 +3°C° 0 mm 1 m/S 745 mmHg 80%

Morgen, 26 Januar, Dienstag

Zeit Temperatur Niederschläge Wind Luftdruck Luftfeuchtigkeit
00:00 +2°C° 0 mm 2 m/S 746 mmHg 80%
01:00 +2°C° 0 mm 2 m/S 746 mmHg 81%
02:00 +2°C° 0 mm 2 m/S 746 mmHg 82%
03:00 0°C° 0 mm 3 m/S 747 mmHg 82%
04:00 0°C° 0 mm 3 m/S 747 mmHg 83%
05:00 0°C° 0 mm 3 m/S 748 mmHg 83%
06:00 -1°C° 0 mm 4 m/S 749 mmHg 83%
07:00 -2°C° 0 mm 4 m/S 749 mmHg 82%
08:00 -1°C° 0 mm 4 m/S 750 mmHg 79%
09:00 -1°C° 0 mm 5 m/S 751 mmHg 75%
10:00 0°C° 0 mm 5 m/S 751 mmHg 72%
11:00 +1°C° 0 mm 5 m/S 751 mmHg 69%
12:00 +1°C° 0 mm 5 m/S 751 mmHg 67%
13:00 +1°C° 0 mm 6 m/S 751 mmHg 64%
14:00 +1°C° 0 mm 5 m/S 751 mmHg 65%
15:00 +1°C° 0 mm 5 m/S 751 mmHg 66%
16:00 +1°C° 0 mm 5 m/S 751 mmHg 68%
17:00 0°C° 0 mm 5 m/S 751 mmHg 70%
18:00 0°C° 0 mm 5 m/S 752 mmHg 72%
19:00 -1°C° 0 mm 5 m/S 752 mmHg 74%
20:00 -1°C° 0 mm 5 m/S 752 mmHg 75%
21:00 -2°C° 0 mm 4 m/S 752 mmHg 75%
22:00 -2°C° 0 mm 4 m/S 752 mmHg 76%
23:00 -2°C° 0 mm 4 m/S 752 mmHg 76%

übermorgen, 27 Januar, Mittwoch

Zeit Temperatur Niederschläge Wind Luftdruck Luftfeuchtigkeit
00:00 -2°C° 0 mm 4 m/S 752 mmHg 76%
01:00 -2°C° 0 mm 4 m/S 752 mmHg 76%
02:00 -2°C° 0 mm 5 m/S 752 mmHg 81%
03:00 -3°C° 0 mm 6 m/S 752 mmHg 86%
04:00 -3°C° 0 mm 7 m/S 751 mmHg 90%
05:00 -3°C° 0.1 mm 7 m/S 752 mmHg 88%
06:00 -3°C° 0.1 mm 7 m/S 752 mmHg 86%
07:00 -3°C° 0.1 mm 6 m/S 752 mmHg 84%
08:00 -2°C° 0 mm 7 m/S 752 mmHg 80%
09:00 -2°C° 0 mm 7 m/S 752 mmHg 75%
10:00 -1°C° 0 mm 8 m/S 753 mmHg 71%
11:00 -1°C° 0 mm 8 m/S 753 mmHg 67%
12:00 0°C° 0 mm 8 m/S 753 mmHg 63%
13:00 +1°C° 0 mm 8 m/S 753 mmHg 59%
14:00 0°C° 0 mm 7 m/S 753 mmHg 61%
15:00 +1°C° 0 mm 6 m/S 753 mmHg 64%
16:00 +1°C° 0 mm 6 m/S 753 mmHg 66%
17:00 0°C° 0 mm 5 m/S 753 mmHg 68%
18:00 -1°C° 0 mm 5 m/S 753 mmHg 71%
19:00 -1°C° 0 mm 5 m/S 754 mmHg 73%
20:00 -1°C° 0 mm 5 m/S 754 mmHg 75%
21:00 -2°C° 0 mm 4 m/S 754 mmHg 78%
22:00 -2°C° 0 mm 4 m/S 754 mmHg 80%
23:00 -2°C° 0 mm 4 m/S 754 mmHg 82%

28 Januar, Donnerstag

Zeit Temperatur Niederschläge Wind Luftdruck Luftfeuchtigkeit
00:00 -3°C° 0 mm 4 m/S 754 mmHg 83%
01:00 -3°C° 0 mm 4 m/S 755 mmHg 85%
02:00 -3°C° 0 mm 4 m/S 754 mmHg 86%
03:00 -3°C° 0 mm 4 m/S 754 mmHg 86%
04:00 -3°C° 0 mm 4 m/S 754 mmHg 86%
05:00 -3°C° 0 mm 4 m/S 754 mmHg 85%
06:00 -2°C° 0 mm 3 m/S 754 mmHg 84%
07:00 -2°C° 0 mm 3 m/S 754 mmHg 84%
08:00 -1°C° 0 mm 3 m/S 754 mmHg 77%
09:00 0°C° 0 mm 3 m/S 754 mmHg 70%
10:00 +1°C° 0 mm 3 m/S 754 mmHg 63%
11:00 +2°C° 0 mm 3 m/S 753 mmHg 59%
12:00 +3°C° 0 mm 3 m/S 753 mmHg 55%
13:00 +4°C° 0 mm 3 m/S 752 mmHg 51%
14:00 +4°C° 0 mm 3 m/S 752 mmHg 55%
15:00 +4°C° 0 mm 2 m/S 752 mmHg 59%
16:00 +4°C° 0 mm 2 m/S 751 mmHg 64%
17:00 +3°C° 0 mm 2 m/S 751 mmHg 67%
18:00 +4°C° 0 mm 1 m/S 751 mmHg 70%
19:00 +3°C° 0 mm 1 m/S 751 mmHg 73%
20:00 +3°C° 0 mm 1 m/S 752 mmHg 73%
21:00 +3°C° 0 mm 1 m/S 752 mmHg 73%
22:00 +3°C° 0 mm 1 m/S 752 mmHg 73%
23:00 +3°C° 0 mm 1 m/S 752 mmHg 75%

29 Januar, Freitag

Zeit Temperatur Niederschläge Wind Luftdruck Luftfeuchtigkeit
00:00 +3°C° 0 mm 1 m/S 752 mmHg 77%
01:00 +3°C° 0 mm 1 m/S 752 mmHg 79%
02:00 +2°C° 0.2 mm 2 m/S 752 mmHg 80%
03:00 +2°C° 0.2 mm 2 m/S 752 mmHg 82%
04:00 +1°C° 0.2 mm 3 m/S 752 mmHg 83%
05:00 +1°C° 0.1 mm 3 m/S 752 mmHg 83%
06:00 +1°C° 0.1 mm 3 m/S 752 mmHg 82%
07:00 +1°C° 0.1 mm 2 m/S 753 mmHg 81%
08:00 +2°C° 0 mm 3 m/S 753 mmHg 76%
09:00 +3°C° 0 mm 3 m/S 753 mmHg 70%
10:00 +4°C° 0 mm 3 m/S 753 mmHg 64%
11:00 +5°C° 0 mm 3 m/S 752 mmHg 62%
12:00 +7°C° 0 mm 4 m/S 751 mmHg 60%
13:00 +8°C° 0 mm 4 m/S 751 mmHg 58%
14:00 +8°C° 0 mm 4 m/S 750 mmHg 61%
15:00 +9°C° 0 mm 3 m/S 749 mmHg 65%
16:00 +9°C° 0 mm 3 m/S 749 mmHg 68%
17:00 +8°C° 0 mm 3 m/S 749 mmHg 71%
18:00 +7°C° 0 mm 3 m/S 749 mmHg 73%
19:00 +5°C° 0 mm 3 m/S 749 mmHg 76%
20:00 +5°C° 0 mm 3 m/S 749 mmHg 77%
21:00 +5°C° 0 mm 3 m/S 749 mmHg 79%
22:00 +5°C° 0 mm 3 m/S 749 mmHg 81%
23:00 +5°C° 0.1 mm 3 m/S 749 mmHg 81%

30 Januar, Samstag

Zeit Temperatur Niederschläge Wind Luftdruck Luftfeuchtigkeit
00:00 +5°C° 0.1 mm 3 m/S 749 mmHg 80%
01:00 +5°C° 0.1 mm 3 m/S 749 mmHg 79%
02:00 +5°C° 0.7 mm 3 m/S 749 mmHg 83%
03:00 +5°C° 0.7 mm 3 m/S 748 mmHg 86%
04:00 +4°C° 0.7 mm 3 m/S 748 mmHg 89%
05:00 +4°C° 2.5 mm 3 m/S 748 mmHg 91%
06:00 +5°C° 2.5 mm 3 m/S 748 mmHg 94%
07:00 +5°C° 2.5 mm 3 m/S 748 mmHg 96%
08:00 +6°C° 1.8 mm 2 m/S 747 mmHg 97%
09:00 +6°C° 1.8 mm 2 m/S 747 mmHg 97%
10:00 +6°C° 1.8 mm 2 m/S 747 mmHg 97%
11:00 +6°C° 2.5 mm 2 m/S 746 mmHg 94%
12:00 +6°C° 2.5 mm 2 m/S 746 mmHg 91%
13:00 +6°C° 2.5 mm 2 m/S 745 mmHg 89%
14:00 +6°C° 1.4 mm 2 m/S 745 mmHg 89%
15:00 +6°C° 1.4 mm 2 m/S 746 mmHg 89%
16:00 +6°C° 1.4 mm 2 m/S 746 mmHg 90%
17:00 +5°C° 0.6 mm 3 m/S 747 mmHg 90%
18:00 +5°C° 0.6 mm 4 m/S 747 mmHg 90%
19:00 +5°C° 0.6 mm 5 m/S 748 mmHg 90%
20:00 +4°C° 0 mm 4 m/S 749 mmHg 91%
21:00 +4°C° 0 mm 4 m/S 749 mmHg 92%
22:00 +3°C° 0 mm 4 m/S 750 mmHg 93%
23:00 +3°C° 0 mm 4 m/S 750 mmHg 93%
Mehr zeigen

Wir brauchen deine Erlaubnis

Meteoprog und unser Service Anbieter werden persönliche Daten aufbewahren, so wie Cookies, Geräte Bezeichnung oder ähnliche Technologien von deinem Gerät und Prozess, so wie Persönliche Daten Inhalte und Werbungen, genauso wie social Media und den Verkehr zu analysieren.

  • Aufbewahrung und/oder Zugang zu deiner Geräte Informationen.

    Cookies, Geräte Bezeichnung oder andere Informationen, können aufbewahrt oder Zugang zu deinem Gerät erhalten, für den Grund, der oben angegeben wird.

  • Personalisierte Werbung und Inhalte, Messungen, Einblick in das Publikum und Produkt Entwicklung.

    Werbungen und Inhalte können personalisiert werden, basierend auf ein Profil. Mehr Daten können besser personalisierte Werbungen und Inhalte hinzufügen. Werbung und Inhalte können gezeigt und gemessen werden. Einblicke über das Publikum, welche die Werbung gesehen haben und den Inhalt, können abgeleitet werden. So wie Daten können genutzt werden, um es zu verbessern oder die Benutzer Erfahrung zu verbessern das System und die Software.

Wenn du “Ich stimme zu” klickst, erlaubst du uns, die Cookies zu benutzen die Geräte Bezeichnung, den Web oder ähnliche Technologien zu benutzen. Deine Settings, können in deinem Gerät bei deinem Browser geändert werden.

Für den bestimmten Zweck, berechtigten Interessen beruhen darauf, mehr als auf den Inhalt. Du kannst mehr darüber in unseren Privaten und Cookie Politik lesen.